When you browse on this site, cookies collect data to enhance your experience and personalize the content and advertising you see.
Visit our Privacy Policy to learn more. By continuing to use the site, you agree to this use of cookies and data.
  • în România
  • Lista ţărilor
  • Pe 7 zile
  • Temperatura apei
  • Meteo pe hartă
  • Widget-uri
  • user-avatar
    Intrare

    Meteo pe oră la Mamou

    Astăzi, 7 Decembrie, Sâmbătă

    Timp Temperatura Precipitaţii Vânt Presiune Umiditate
    00:00 +25°C° 0 mm 2 m/s 733 mmHg 20%
    01:00 +24°C° 0 mm 2 m/s 733 mmHg 21%
    02:00 +24°C° 0 mm 2 m/s 733 mmHg 21%
    03:00 +23°C° 0 mm 2 m/s 733 mmHg 21%
    04:00 +23°C° 0 mm 2 m/s 734 mmHg 22%
    05:00 +23°C° 0 mm 2 m/s 734 mmHg 23%
    06:00 +21°C° 0 mm 2 m/s 734 mmHg 23%
    07:00 +21°C° 0 mm 2 m/s 734 mmHg 24%
    08:00 +25°C° 0 mm 2 m/s 735 mmHg 21%
    09:00 +28°C° 0 mm 2 m/s 735 mmHg 17%
    10:00 +31°C° 0 mm 2 m/s 735 mmHg 14%
    11:00 +34°C° 0 mm 3 m/s 734 mmHg 12%
    12:00 +36°C° 0 mm 3 m/s 734 mmHg 11%
    13:00 +38°C° 0 mm 3 m/s 733 mmHg 9%
    14:00 +37°C° 0 mm 3 m/s 732 mmHg 9%
    15:00 +37°C° 0 mm 3 m/s 732 mmHg 9%
    16:00 +37°C° 0 mm 3 m/s 731 mmHg 9%
    17:00 +35°C° 0 mm 2 m/s 731 mmHg 11%
    18:00 +32°C° 0 mm 2 m/s 732 mmHg 13%
    19:00 +29°C° 0 mm 2 m/s 732 mmHg 15%
    20:00 +28°C° 0 mm 2 m/s 732 mmHg 15%
    21:00 +28°C° 0 mm 2 m/s 733 mmHg 16%
    22:00 +27°C° 0 mm 2 m/s 733 mmHg 16%
    23:00 +26°C° 0 mm 2 m/s 733 mmHg 18%

    Mâine, 8 Decembrie, Duminică

    Timp Temperatura Precipitaţii Vânt Presiune Umiditate
    00:00 +25°C° 0 mm 2 m/s 733 mmHg 19%
    01:00 +24°C° 0 mm 2 m/s 733 mmHg 21%
    02:00 +24°C° 0 mm 2 m/s 733 mmHg 22%
    03:00 +23°C° 0 mm 2 m/s 733 mmHg 22%
    04:00 +21°C° 0 mm 2 m/s 733 mmHg 23%
    05:00 +21°C° 0 mm 2 m/s 733 mmHg 24%
    06:00 +21°C° 0 mm 2 m/s 734 mmHg 26%
    07:00 +21°C° 0 mm 2 m/s 734 mmHg 27%
    08:00 +25°C° 0 mm 2 m/s 735 mmHg 23%
    09:00 +29°C° 0 mm 3 m/s 735 mmHg 19%
    10:00 +33°C° 0 mm 3 m/s 735 mmHg 15%
    11:00 +34°C° 0 mm 3 m/s 734 mmHg 13%
    12:00 +36°C° 0 mm 2 m/s 734 mmHg 12%
    13:00 +38°C° 0 mm 2 m/s 733 mmHg 10%
    14:00 +38°C° 0 mm 2 m/s 733 mmHg 10%
    15:00 +38°C° 0 mm 2 m/s 732 mmHg 10%
    16:00 +38°C° 0 mm 2 m/s 732 mmHg 10%
    17:00 +35°C° 0 mm 2 m/s 732 mmHg 12%
    18:00 +32°C° 0 mm 2 m/s 732 mmHg 13%
    19:00 +30°C° 0 mm 2 m/s 732 mmHg 15%
    20:00 +29°C° 0 mm 2 m/s 732 mmHg 16%
    21:00 +28°C° 0 mm 2 m/s 733 mmHg 17%
    22:00 +27°C° 0 mm 2 m/s 733 mmHg 18%
    23:00 +26°C° 0 mm 2 m/s 733 mmHg 20%

    Poimâine, 9 Decembrie, Luni

    Timp Temperatura Precipitaţii Vânt Presiune Umiditate
    00:00 +25°C° 0 mm 2 m/s 733 mmHg 22%
    01:00 +24°C° 0 mm 2 m/s 733 mmHg 24%
    02:00 +24°C° 0 mm 2 m/s 733 mmHg 26%
    03:00 +23°C° 0 mm 2 m/s 732 mmHg 27%
    04:00 +21°C° 0 mm 2 m/s 732 mmHg 29%
    05:00 +22°C° 0 mm 1 m/s 733 mmHg 30%
    06:00 +22°C° 0 mm 1 m/s 733 mmHg 32%
    07:00 +22°C° 0 mm 1 m/s 734 mmHg 33%
    08:00 +25°C° 0 mm 2 m/s 734 mmHg 29%
    09:00 +28°C° 0 mm 2 m/s 735 mmHg 25%
    10:00 +30°C° 0 mm 3 m/s 735 mmHg 20%
    11:00 +33°C° 0 mm 3 m/s 735 mmHg 18%
    12:00 +35°C° 0 mm 2 m/s 734 mmHg 15%
    13:00 +37°C° 0 mm 2 m/s 733 mmHg 13%
    14:00 +37°C° 0 mm 2 m/s 733 mmHg 12%
    15:00 +37°C° 0 mm 2 m/s 732 mmHg 12%
    16:00 +37°C° 0 mm 2 m/s 732 mmHg 11%
    17:00 +35°C° 0 mm 2 m/s 732 mmHg 13%
    18:00 +31°C° 0 mm 2 m/s 732 mmHg 15%
    19:00 +29°C° 0 mm 2 m/s 732 mmHg 17%
    20:00 +28°C° 0 mm 2 m/s 732 mmHg 18%
    21:00 +27°C° 0 mm 2 m/s 733 mmHg 20%
    22:00 +26°C° 0 mm 2 m/s 733 mmHg 21%
    23:00 +26°C° 0 mm 2 m/s 733 mmHg 23%

    10 Decembrie, Marţi

    Timp Temperatura Precipitaţii Vânt Presiune Umiditate
    00:00 +25°C° 0 mm 2 m/s 733 mmHg 25%
    01:00 +24°C° 0 mm 2 m/s 733 mmHg 27%
    02:00 +23°C° 0 mm 2 m/s 733 mmHg 28%
    03:00 +21°C° 0 mm 2 m/s 732 mmHg 28%
    04:00 +21°C° 0 mm 2 m/s 732 mmHg 29%
    05:00 +21°C° 0 mm 2 m/s 733 mmHg 29%
    06:00 +21°C° 0 mm 2 m/s 733 mmHg 29%
    07:00 +20°C° 0 mm 2 m/s 734 mmHg 29%
    08:00 +24°C° 0 mm 2 m/s 734 mmHg 25%
    09:00 +27°C° 0 mm 2 m/s 734 mmHg 21%
    10:00 +30°C° 0 mm 2 m/s 735 mmHg 17%
    11:00 +32°C° 0 mm 2 m/s 734 mmHg 15%
    12:00 +34°C° 0 mm 1 m/s 733 mmHg 13%
    13:00 +36°C° 0 mm 1 m/s 733 mmHg 11%
    14:00 +36°C° 0 mm 1 m/s 732 mmHg 11%
    15:00 +36°C° 0 mm 1 m/s 731 mmHg 11%
    16:00 +36°C° 0 mm 1 m/s 731 mmHg 11%
    17:00 +34°C° 0 mm 1 m/s 731 mmHg 13%
    18:00 +31°C° 0 mm 1 m/s 731 mmHg 15%
    19:00 +29°C° 0 mm 1 m/s 731 mmHg 17%
    20:00 +28°C° 0 mm 2 m/s 732 mmHg 17%
    21:00 +27°C° 0 mm 2 m/s 732 mmHg 18%
    22:00 +26°C° 0 mm 2 m/s 733 mmHg 19%
    23:00 +26°C° 0 mm 2 m/s 733 mmHg 20%

    11 Decembrie, Miercuri

    Timp Temperatura Precipitaţii Vânt Presiune Umiditate
    00:00 +25°C° 0 mm 2 m/s 733 mmHg 21%
    01:00 +24°C° 0 mm 2 m/s 733 mmHg 22%
    02:00 +23°C° 0 mm 2 m/s 733 mmHg 21%
    03:00 +21°C° 0 mm 2 m/s 733 mmHg 21%
    04:00 +21°C° 0 mm 2 m/s 732 mmHg 21%
    05:00 +21°C° 0 mm 2 m/s 733 mmHg 21%
    06:00 +21°C° 0 mm 2 m/s 733 mmHg 21%
    07:00 +20°C° 0 mm 2 m/s 734 mmHg 22%
    08:00 +25°C° 0 mm 2 m/s 734 mmHg 18%
    09:00 +28°C° 0 mm 2 m/s 734 mmHg 15%
    10:00 +31°C° 0 mm 2 m/s 735 mmHg 12%
    11:00 +32°C° 0 mm 2 m/s 734 mmHg 11%
    12:00 +35°C° 0 mm 2 m/s 734 mmHg 10%
    13:00 +36°C° 0 mm 1 m/s 733 mmHg 9%
    14:00 +36°C° 0 mm 1 m/s 732 mmHg 9%
    15:00 +36°C° 0 mm 1 m/s 732 mmHg 9%
    16:00 +37°C° 0 mm 2 m/s 731 mmHg 9%
    17:00 +35°C° 0 mm 2 m/s 731 mmHg 11%
    18:00 +31°C° 0 mm 2 m/s 731 mmHg 13%
    19:00 +28°C° 0 mm 2 m/s 731 mmHg 15%
    20:00 +28°C° 0 mm 2 m/s 732 mmHg 16%
    21:00 +27°C° 0 mm 2 m/s 733 mmHg 17%
    22:00 +26°C° 0 mm 2 m/s 733 mmHg 17%
    23:00 +25°C° 0 mm 2 m/s 733 mmHg 19%

    12 Decembrie, Joi

    Timp Temperatura Precipitaţii Vânt Presiune Umiditate
    00:00 +24°C° 0 mm 2 m/s 733 mmHg 20%
    01:00 +23°C° 0 mm 2 m/s 733 mmHg 21%
    02:00 +21°C° 0 mm 2 m/s 733 mmHg 21%
    03:00 +21°C° 0 mm 2 m/s 733 mmHg 22%
    04:00 +20°C° 0 mm 2 m/s 732 mmHg 22%
    05:00 +20°C° 0 mm 2 m/s 733 mmHg 23%
    06:00 +20°C° 0 mm 2 m/s 733 mmHg 24%
    07:00 +20°C° 0 mm 2 m/s 734 mmHg 26%
    08:00 +24°C° 0 mm 2 m/s 734 mmHg 23%
    09:00 +27°C° 0 mm 2 m/s 735 mmHg 20%
    10:00 +30°C° 0 mm 2 m/s 735 mmHg 17%
    11:00 +32°C° 0 mm 2 m/s 734 mmHg 15%
    12:00 +34°C° 0 mm 2 m/s 734 mmHg 13%
    13:00 +36°C° 0 mm 2 m/s 733 mmHg 11%
    14:00 +36°C° 0 mm 2 m/s 732 mmHg 11%
    15:00 +37°C° 0 mm 2 m/s 732 mmHg 11%
    16:00 +37°C° 0 mm 2 m/s 731 mmHg 11%
    17:00 +34°C° 0 mm 2 m/s 732 mmHg 14%
    18:00 +31°C° 0 mm 2 m/s 732 mmHg 16%
    19:00 +28°C° 0 mm 3 m/s 732 mmHg 19%
    20:00 +28°C° 0 mm 3 m/s 733 mmHg 19%
    21:00 +27°C° 0 mm 3 m/s 733 mmHg 20%
    22:00 +26°C° 0 mm 3 m/s 734 mmHg 21%
    23:00 +25°C° 0 mm 3 m/s 734 mmHg 23%
    Arată mai mult